Regional Weather Roundup
Issued by NWS Albany, NY

Home | Current Version | Previous Version | Text Only | Print | Product List | Glossary On
Versions: 1 2 3 4 5 6 7 8 9 10 11 12 13 14 15 16 17 18 19 20 21 22 23 24 25 26 27 28 29 30 31 32 33 34 35 36 37 38 39 40 41 42 43 44 45 46 47 48 49 50
000
ASUS41 KALY 261310
RWRALY

NEW YORK STATE HOURLY WEATHER ROUNDUP
NATIONAL WEATHER SERVICE ALBANY NY
900 AM EDT MON SEP 26 2016

NOTE: "FAIR" INDICATES FEW OR NO CLOUDS BELOW 12,000 FEET WITH NO
SIGNIFICANT WEATHER AND/OR NO OBSTRUCTIONS TO VISIBILITY.

NYZ032-033-038>043-046>054-057>066-NYZ062>081-082-084-261400-
EAST


CITY           SKY/WX    TMP DP  RH WIND       PRES   REMARKS
ALBANY         MOSUNNY   47  42  83 CALM      30.22F
GLENS FALLS    SUNNY     46  41  82 CALM      30.21F
POUGHKEEPSIE   SUNNY     46  41  82 CALM      30.22F
NEWBURGH       SUNNY     50  46  87 CALM      30.23S
MONTGOMERY     SUNNY     50  43  77 NE3       30.21F
WHITE PLAINS   SUNNY     57  44  62 E6        30.20S
ISLIP          MOSUNNY   60  44  55 E10       30.21S
NEW YORK CITY  MOSUNNY   62  43  49 NE9       30.20S
CENTRAL PARK   SUNNY     60  45  57 VRB3      30.22F
$$

NYZ005>009-017-018-044>046-055-056-261400-
CENTRAL


CITY           SKY/WX    TMP DP  RH WIND       PRES   REMARKS
FULTON         CLOUDY    51  43  74 VRB6      30.07F
SYRACUSE       CLOUDY    50  43  77 E9        30.09F
ROME           CLOUDY    48  42  80 E12       30.16F
ELMIRA         CLOUDY    48  40  73 CALM      30.09F
BINGHAMTON     SUNNY     49  38  65 SE14      30.12F
MONTICELLO     SUNNY     48  39  71 E7        30.21S
$$

NYZ026>034-041>043-087-261400-
NORTH


CITY           SKY/WX    TMP DP  RH WIND       PRES   REMARKS
WATERTOWN      MOSUNNY   57  38  48 SE8       30.08F
FORT DRUM      NOT AVBL
OGDENSBURG     FAIR      49  45  87 CALM      30.12F
MASSENA        SUNNY     45  38  76 E5        30.16F
PLATTSBURGH    SUNNY     48  40  73 VRB3      30.18F
$$

NYZ001>004-010>016-019>021-085-261400-
WEST


CITY           SKY/WX    TMP DP  RH WIND       PRES   REMARKS
NIAGARA FALLS  PTSUNNY   59  45  59 SE9       29.93F
BUFFALO        PTSUNNY   59  45  59 SE10      29.95F
DUNKIRK        SUNNY     65  48  54 S14G25    29.92F
JAMESTOWN      SUNNY     55  45  67 S13G21    29.98F
WELLSVILLE     CLOUDY    55  47  74 S9        30.06F
ROCHESTER      CLOUDY    54  43  66 SE8       30.00F
PENN YAN       MOSUNNY   54  41  61 S8        30.07F
$$

             KEY
       WCI = WIND CHILL INDEX
       VSB = VISIBILITY
       HX  = HEAT INDEX
$$



USA.gov is the U.S. government's official web portal to all federal, state and local government web resources and services.